Flag for Germany Weather past 2 weeks in Walsrode, Lower Saxony, Germany

Now
64 °F

Fog.


Feels Like: 64 °F
Forecast: 62 / 88 °F
Wind: 3 mph from North

Location: Fassberg

Current Time: Aug 31, 2015 at 1:37:24 AM

Latest Report: Aug 31, 2015 at 12:20 AM


Visibility: 5 mi

Pressure: 29.98 "Hg

Humidity: 100%

Dew point: 64 °F

Location of WalsrodeLocation

Historic Weather in Walsrode — Graph

°F

Walsrode temperature yesterday

Maximum temperature yesterday: 77 °F (at 4:20 PM)
Minimum temperature yesterday: 55 °F (at 12:20 AM)
Average temperature yesterday: 64 °F

Past Weeks' High & Low Weather Summary

 TemperatureHumidityPressure
High79 °F (Aug 26, 4:20 PM)100% (Aug 16, 1:20 AM)30.30 "Hg (Aug 16, 1:20 AM)
Low45 °F (Aug 29, 5:20 AM)34% (Aug 22, 5:20 PM)29.62 "Hg (Aug 24, 6:20 PM)
Average63 °F82%29.99 "Hg
* Reported Aug 16 12:20 AM — Aug 31 12:20 AM, Walsrode, Weather by CustomWeather, © 2015

Note: Actual official high and low records may vary slightly from our data, if they occured in-between our weather recording intervals... More about our weather records

Advertising

Walsrode weather history for previous 24 hours

 ConditionsComfort  
Time TempWeatherWind HumidityBarometerVisibility
12:20 AM
Mon, Aug 31
64 °FFog.3 mph100%29.98 "Hg5 mi
11:20 PM
Sun, Aug 30
66 °FPassing clouds.5 mph94%30.01 "HgN/A
10:20 PM68 °FPartly cloudy.6 mph94%30.01 "HgN/A
9:20 PM68 °FPartly cloudy.6 mph94%30.01 "HgN/A
8:20 PM70 °FBroken clouds.7 mph94%30.01 "HgN/A
7:20 PM73 °FBroken clouds.6 mph89%30.01 "HgN/A
6:20 PM75 °FPartly sunny.9 mph78%30.01 "HgN/A
5:20 PM77 °FPartly sunny.9 mph79%30.01 "HgN/A
4:20 PM77 °FScattered clouds.9 mph79%30.01 "HgN/A
3:20 PM73 °FBroken clouds.7 mph83%30.04 "HgN/A
2:20 PM70 °FBroken clouds.9 mph88%30.07 "HgN/A
1:20 PM66 °FBroken clouds.8 mph94%30.07 "Hg5 mi
12:58 PM64 °FThunderstorms. Broken clouds.10 mph94%30.07 "Hg4 mi
12:47 PM64 °FStrong thunderstorms. Partly sunny.7 mph94%30.04 "Hg2 mi
12:20 PM64 °FThundershowers. Broken clouds.8 mph94%30.09 "Hg4 mi
11:20 AM63 °FThunderstorms. Broken clouds.6 mph100%30.09 "HgN/A
11:04 AM63 °FThundershowers. Broken clouds.5 mph94%30.09 "HgN/A
10:20 AM63 °FThunderstorms. Broken clouds.3 mph94%30.09 "Hg4 mi
9:20 AM59 °FThunderstorms. Broken clouds.15 mph100%30.09 "Hg4 mi
9:01 AM59 °FThunderstorms. Broken clouds.3 mph94%30.12 "Hg4 mi
8:46 AM59 °FStrong thunderstorms. Broken clouds.13 mph94%30.18 "Hg1 mi
8:20 AM59 °FThunderstorms. Partly sunny.5 mph94%30.12 "HgN/A
7:49 AM59 °FThunderstorms. Broken clouds.1 mph88%30.12 "HgN/A
7:20 AM59 °FPassing clouds.2 mph88%30.09 "HgN/A
6:20 AM57 °FPartly cloudy.2 mph88%30.09 "HgN/A
5:20 AM57 °FPartly cloudy.2 mph94%30.09 "HgN/A
4:20 AM57 °FPassing clouds.2 mph88%30.12 "HgN/A
3:20 AM55 °FPassing clouds.2 mph94%30.12 "HgN/A
2:20 AM55 °FFog.3 mph94%30.12 "HgN/A
1:20 AM55 °FFog.2 mph94%30.15 "HgN/A
Weather by CustomWeather, © 2015

See weather overviewHow to use our weather pages